{"data":{"norad_id":81052,"epoch":"2026-05-23T22:46:13.668384Z","epoch_age_seconds":168954,"freshness":"FRESH","line1":"1 81052U          26143.94876931  .00002441  00000+0  65759-3 0  9994","line2":"2 81052  65.7710 338.8625 0557298 229.6964 125.4133 13.84810584622767","mean_motion":13.84810584,"eccentricity":0.0557298,"inclination_deg":65.771,"raan_deg":338.8625,"arg_perigee_deg":229.6964,"mean_anomaly_deg":125.4133,"bstar":0.00065759,"rev_number":62276,"period_min":103.985340424,"perigee_km":538.65224110485,"apogee_km":1355.0949945644,"semimajor_km":7325.0106178346,"source":"CELESTRAK","updated_at":"2026-05-25T13:38:09.443671Z"}}